Time,TemperatureF,DewpointF,PressureIn,WindDirection,WindDirectionDegrees,WindSpeedMPH,WindSpeedGustMPH,Humidity,HourlyPrecipIn,Conditions,Clouds,dailyrainin,SoftwareType,DateUTC
2013-09-22 00:00:00,53.5,50.6,30.03,NE,45,5.0,5.3,90,0.61,,,0.00,VWS V13.01,2013-09-22 05:00:00,
2013-09-22 00:01:00,55.2,48.4,29.97,NE,48,0.3,1.1,78,0.61,,,0.00,VWS V13.01,2013-09-22 05:01:00,
2013-09-22 00:02:00,53.3,50.5,30.04,NNE,21,6.7,6.7,90,0.61,,,0.00,VWS V13.01,2013-09-22 05:02:00,
2013-09-22 00:03:00,53.3,50.4,30.04,NNE,30,3.8,4.9,90,0.61,,,0.00,VWS V13.01,2013-09-22 05:03:00,
2013-09-22 00:06:00,54.8,48.4,29.97,NE,48,0.0,0.0,79,0.61,,,0.00,VWS V13.01,2013-09-22 05:06:00,
2013-09-22 00:11:00,54.2,48.9,29.97,NNE,22,0.0,0.0,82,0.61,,,0.00,VWS V13.01,2013-09-22 05:11:00,
2013-09-22 00:16:00,53.7,49.0,29.97,NNE,22,0.0,0.0,84,0.61,,,0.00,VWS V13.01,2013-09-22 05:16:00,
2013-09-22 00:21:00,53.2,49.2,29.97,NNE,22,0.0,0.0,86,0.61,,,0.00,VWS V13.01,2013-09-22 05:21:00,
2013-09-22 00:26:00,52.8,49.5,29.97,NE,51,2.0,2.1,88,0.61,,,0.00,VWS V13.01,2013-09-22 05:26:00,
2013-09-22 00:31:00,52.2,49.5,29.97,NNE,31,2.7,3.4,90,0.61,,,0.00,VWS V13.01,2013-09-22 05:31:00,
2013-09-22 00:36:00,52.0,49.5,29.97,NE,39,2.2,2.2,91,0.61,,,0.00,VWS V13.01,2013-09-22 05:36:00,
2013-09-22 00:41:00,51.6,49.3,29.97,NNE,27,2.7,3.2,92,0.61,,,0.00,VWS V13.01,2013-09-22 05:41:00,
2013-09-22 00:46:00,52.1,49.8,29.97,NE,41,3.6,4.7,92,0.61,,,0.00,VWS V13.01,2013-09-22 05:46:00,
2013-09-22 00:51:00,52.1,49.6,29.97,NNE,15,4.4,4.4,91,0.61,,,0.00,VWS V13.01,2013-09-22 05:51:00,
2013-09-22 00:56:00,52.6,49.8,29.97,NNE,22,3.8,4.5,90,0.61,,,0.00,VWS V13.01,2013-09-22 05:56:00,
2013-09-22 01:01:00,53.0,50.0,29.97,NE,38,4.5,5.4,89,0.61,,,0.00,VWS V13.01,2013-09-22 06:01:00,
2013-09-22 01:06:00,53.3,49.8,29.98,NE,37,5.2,5.2,88,0.61,,,0.00,VWS V13.01,2013-09-22 06:06:00,
2013-09-22 01:11:00,53.7,49.9,29.98,NNE,18,5.5,5.8,87,0.61,,,0.00,VWS V13.01,2013-09-22 06:11:00,
2013-09-22 01:16:00,53.6,49.8,29.98,NNE,32,5.2,6.6,87,0.61,,,0.00,VWS V13.01,2013-09-22 06:16:00,
2013-09-22 01:21:00,53.7,49.7,29.98,NNE,30,5.0,6.0,86,0.61,,,0.00,VWS V13.01,2013-09-22 06:21:00,
2013-09-22 01:26:00,53.7,49.7,29.98,NNE,24,5.5,5.5,86,0.61,,,0.00,VWS V13.01,2013-09-22 06:26:00,
2013-09-22 01:31:00,53.5,49.6,29.98,NE,34,4.7,6.6,87,0.61,,,0.00,VWS V13.01,2013-09-22 06:31:00,
2013-09-22 01:36:00,53.5,49.7,29.98,ENE,68,3.9,7.0,87,0.61,,,0.00,VWS V13.01,2013-09-22 06:36:00,
2013-09-22 01:41:00,53.3,49.9,29.98,NNE,32,6.0,6.3,88,0.61,,,0.00,VWS V13.01,2013-09-22 06:41:00,
2013-09-22 01:46:00,53.3,50.1,29.98,ENE,59,5.7,7.4,89,0.61,,,0.00,VWS V13.01,2013-09-22 06:46:00,
2013-09-22 01:51:00,52.9,50.0,29.98,NNE,18,5.7,6.8,90,0.61,,,0.00,VWS V13.01,2013-09-22 06:51:00,
2013-09-22 01:56:00,52.4,49.7,29.98,NE,41,5.0,6.2,91,0.61,,,0.00,VWS V13.01,2013-09-22 06:56:00,
2013-09-22 02:01:00,52.3,49.9,29.98,NE,56,5.1,7.9,92,0.61,,,0.00,VWS V13.01,2013-09-22 07:01:00,
2013-09-22 02:06:00,52.1,50.1,29.98,NNE,32,5.5,8.8,93,0.61,,,0.00,VWS V13.01,2013-09-22 07:06:00,
2013-09-22 02:11:00,51.9,50.2,29.98,NNE,27,7.4,7.4,94,0.61,,,0.00,VWS V13.01,2013-09-22 07:11:00,
2013-09-22 02:16:00,51.6,50.0,29.99,NE,41,6.3,6.5,94,0.61,,,0.00,VWS V13.01,2013-09-22 07:16:00,
2013-09-22 02:21:00,51.6,50.3,29.99,NE,49,5.8,6.0,95,0.61,,,0.00,VWS V13.01,2013-09-22 07:21:00,
2013-09-22 02:26:00,51.0,49.8,29.99,NE,42,5.2,7.1,96,0.61,,,0.00,VWS V13.01,2013-09-22 07:26:00,
2013-09-22 02:30:00,50.9,49.8,29.99,NNE,20,5.6,6.0,96,0.61,,,0.00,VWS V13.01,2013-09-22 07:30:00,
2013-09-22 02:35:00,50.8,49.7,29.99,NE,45,4.8,5.0,96,0.61,,,0.00,VWS V13.01,2013-09-22 07:35:00,
2013-09-22 02:40:00,50.5,49.5,29.99,ENE,58,5.3,7.0,96,0.61,,,0.00,VWS V13.01,2013-09-22 07:40:00,
2013-09-22 02:45:00,50.6,49.6,29.99,NNE,18,5.9,6.7,96,0.61,,,0.00,VWS V13.01,2013-09-22 07:45:00,
2013-09-22 02:50:00,50.5,49.7,29.99,NNE,31,6.3,6.3,97,0.61,,,0.00,VWS V13.01,2013-09-22 07:50:00,
2013-09-22 02:55:00,50.1,49.3,29.99,NE,55,4.5,4.8,97,0.61,,,0.00,VWS V13.01,2013-09-22 07:55:00,
2013-09-22 03:00:00,50.1,49.3,29.99,NNE,32,3.4,4.8,97,0.61,,,0.00,VWS V13.01,2013-09-22 08:00:00,
2013-09-22 03:05:00,50.0,49.2,29.99,NE,38,3.2,4.4,97,0.61,,,0.00,VWS V13.01,2013-09-22 08:05:00,
2013-09-22 03:10:00,49.8,49.1,29.99,NE,44,4.2,5.2,97,0.61,,,0.00,VWS V13.01,2013-09-22 08:10:00,
2013-09-22 03:15:00,49.8,49.2,29.99,NE,51,3.7,5.0,98,0.61,,,0.00,VWS V13.01,2013-09-22 08:15:00,
2013-09-22 03:20:00,49.6,49.0,29.99,NE,37,4.8,5.1,98,0.61,,,0.00,VWS V13.01,2013-09-22 08:20:00,
2013-09-22 03:25:00,49.5,49.0,29.99,NE,42,4.3,4.3,98,0.61,,,0.00,VWS V13.01,2013-09-22 08:25:00,
2013-09-22 03:30:00,49.5,49.0,30.00,NE,51,3.6,4.2,98,0.61,,,0.00,VWS V13.01,2013-09-22 08:30:00,
2013-09-22 03:35:00,49.4,48.9,30.00,NE,37,5.8,6.3,98,0.61,,,0.00,VWS V13.01,2013-09-22 08:35:00,
2013-09-22 03:40:00,48.9,48.4,30.00,NE,55,4.7,4.7,98,0.61,,,0.00,VWS V13.01,2013-09-22 08:40:00,
2013-09-22 03:45:00,48.9,48.4,30.00,NE,35,4.0,4.8,98,0.61,,,0.00,VWS V13.01,2013-09-22 08:45:00,
2013-09-22 03:51:00,49.0,48.5,29.99,ENE,63,4.8,5.8,98,0.61,,,0.00,VWS V13.01,2013-09-22 08:51:00,
2013-09-22 03:56:00,48.9,48.5,29.99,NE,39,5.4,6.6,99,0.61,,,0.00,VWS V13.01,2013-09-22 08:56:00,
2013-09-22 04:01:00,48.5,48.1,29.99,NE,45,4.3,5.7,98,0.61,,,0.00,VWS V13.01,2013-09-22 09:01:00,
2013-09-22 04:06:00,48.7,48.2,29.99,NE,53,4.0,4.8,98,0.61,,,0.00,VWS V13.01,2013-09-22 09:06:00,
2013-09-22 04:11:00,48.6,48.2,30.00,NE,44,4.5,5.2,98,0.61,,,0.00,VWS V13.01,2013-09-22 09:11:00,
2013-09-22 04:16:00,49.0,48.5,30.00,NE,55,4.8,6.1,98,0.61,,,0.00,VWS V13.01,2013-09-22 09:16:00,
2013-09-22 04:21:00,48.9,48.4,30.00,NE,41,3.5,4.2,98,0.61,,,0.00,VWS V13.01,2013-09-22 09:21:00,
2013-09-22 04:26:00,48.7,48.2,30.00,NNE,32,3.8,3.8,98,0.61,,,0.00,VWS V13.01,2013-09-22 09:26:00,
2013-09-22 04:31:00,48.7,48.2,30.00,NE,55,3.5,4.5,98,0.61,,,0.00,VWS V13.01,2013-09-22 09:31:00,
2013-09-22 04:36:00,48.5,48.1,30.00,NE,49,3.5,4.2,98,0.61,,,0.00,VWS V13.01,2013-09-22 09:36:00,
2013-09-22 04:41:00,48.5,48.1,30.00,NNE,14,3.7,3.7,98,0.61,,,0.00,VWS V13.01,2013-09-22 09:41:00,
2013-09-22 04:46:00,48.7,48.3,30.00,NNE,28,4.0,4.3,98,0.61,,,0.00,VWS V13.01,2013-09-22 09:46:00,
2013-09-22 04:51:00,48.4,48.1,30.00,NNE,31,3.3,4.8,99,0.61,,,0.00,VWS V13.01,2013-09-22 09:51:00,
2013-09-22 04:56:00,48.2,47.9,30.00,NNE,28,3.2,4.4,99,0.61,,,0.00,VWS V13.01,2013-09-22 09:56:00,
2013-09-22 05:00:00,48.3,48.0,30.00,NE,34,3.2,3.2,99,0.61,,,0.00,VWS V13.01,2013-09-22 10:00:00,
2013-09-22 05:05:00,48.4,48.0,30.00,NNE,27,2.9,3.0,99,0.61,,,0.00,VWS V13.01,2013-09-22 10:05:00,
2013-09-22 05:11:00,48.2,47.8,30.00,NNE,28,3.0,3.1,99,0.61,,,0.00,VWS V13.01,2013-09-22 10:11:00,
2013-09-22 05:16:00,48.6,48.2,30.01,NNE,22,2.3,2.7,99,0.61,,,0.00,VWS V13.01,2013-09-22 10:16:00,
2013-09-22 05:21:00,48.4,48.0,30.00,NNE,27,3.2,3.5,99,0.61,,,0.00,VWS V13.01,2013-09-22 10:21:00,
2013-09-22 05:26:00,48.1,47.8,30.01,NNE,32,2.5,2.7,99,0.61,,,0.00,VWS V13.01,2013-09-22 10:26:00,
2013-09-22 05:31:00,48.1,47.8,30.01,NNE,28,2.1,2.5,99,0.61,,,0.00,VWS V13.01,2013-09-22 10:31:00,
2013-09-22 05:36:00,48.0,47.7,30.01,NNE,13,2.3,2.7,99,0.61,,,0.00,VWS V13.01,2013-09-22 10:36:00,
2013-09-22 05:41:00,47.7,47.3,30.01,North,6,2.0,2.4,98,0.61,,,0.00,VWS V13.01,2013-09-22 10:41:00,
2013-09-22 05:46:00,47.8,47.4,30.01,NNE,15,2.8,3.0,98,0.61,,,0.00,VWS V13.01,2013-09-22 10:46:00,
2013-09-22 05:51:00,47.9,47.5,30.01,NNE,21,3.5,3.7,98,0.61,,,0.00,VWS V13.01,2013-09-22 10:51:00,
2013-09-22 05:56:00,47.7,47.3,30.01,NNE,22,2.6,3.0,98,0.61,,,0.00,VWS V13.01,2013-09-22 10:56:00,
2013-09-22 06:01:00,47.7,47.3,30.02,NNE,14,2.1,2.7,98,0.61,,,0.00,VWS V13.01,2013-09-22 11:01:00,
2013-09-22 06:06:00,47.9,47.5,30.02,NNE,27,2.4,2.4,98,0.61,,,0.00,VWS V13.01,2013-09-22 11:06:00,
2013-09-22 06:11:00,47.8,47.4,30.02,NNE,21,2.3,2.8,98,0.61,,,0.00,VWS V13.01,2013-09-22 11:11:00,
2013-09-22 06:16:00,48.2,47.8,30.02,NNE,20,2.1,2.5,98,0.61,,,0.00,VWS V13.01,2013-09-22 11:16:00,
2013-09-22 06:21:00,47.8,47.4,30.02,NNE,28,2.4,2.7,98,0.61,,,0.00,VWS V13.01,2013-09-22 11:21:00,
2013-09-22 06:26:00,47.8,47.4,30.02,North,1,1.5,2.4,98,0.61,,,0.00,VWS V13.01,2013-09-22 11:26:00,
2013-09-22 06:31:00,48.0,47.5,30.02,NE,37,1.6,1.9,98,0.61,,,0.00,VWS V13.01,2013-09-22 11:31:00,
2013-09-22 06:36:00,47.6,47.2,30.02,NNE,15,1.4,1.8,98,0.61,,,0.00,VWS V13.01,2013-09-22 11:36:00,
2013-09-22 06:41:00,47.6,47.1,30.02,NNE,17,0.0,0.0,98,0.61,,,0.00,VWS V13.01,2013-09-22 11:41:00,
2013-09-22 06:46:00,47.8,47.3,30.02,NNE,17,0.0,0.0,98,0.61,,,0.00,VWS V13.01,2013-09-22 11:46:00,
2013-09-22 06:51:00,47.7,47.2,30.02,NNE,17,0.0,0.0,98,0.61,,,0.00,VWS V13.01,2013-09-22 11:51:00,
2013-09-22 06:56:00,47.6,47.1,30.03,NNE,17,0.0,0.0,98,0.61,,,0.00,VWS V13.01,2013-09-22 11:56:00,
2013-09-22 07:01:00,47.9,47.4,30.03,NNE,20,2.4,2.4,98,0.61,,,0.00,VWS V13.01,2013-09-22 12:01:00,
2013-09-22 07:06:00,47.8,47.3,30.03,North,8,1.9,2.3,98,0.61,,,0.00,VWS V13.01,2013-09-22 12:06:00,
2013-09-22 07:11:00,47.9,47.4,30.03,NNE,18,1.9,2.1,98,0.61,,,0.00,VWS V13.01,2013-09-22 12:11:00,
2013-09-22 07:16:00,48.0,47.5,30.03,NNE,20,2.1,2.1,98,0.61,,,0.00,VWS V13.01,2013-09-22 12:16:00,
2013-09-22 07:21:00,47.9,47.4,30.03,NNE,14,1.5,1.8,98,0.61,,,0.00,VWS V13.01,2013-09-22 12:21:00,
2013-09-22 07:26:00,48.4,47.8,30.03,NNE,25,1.9,2.4,98,0.61,,,0.00,VWS V13.01,2013-09-22 12:26:00,
2013-09-22 07:31:00,48.8,48.2,30.03,NNE,22,1.9,2.1,98,0.61,,,0.00,VWS V13.01,2013-09-22 12:31:00,
2013-09-22 07:36:00,48.8,48.3,30.04,NNE,21,2.5,2.8,98,0.61,,,0.00,VWS V13.01,2013-09-22 12:36:00,
2013-09-22 07:41:00,48.7,48.2,30.04,NE,45,2.9,3.5,98,0.61,,,0.00,VWS V13.01,2013-09-22 12:41:00,
2013-09-22 07:46:00,49.2,48.7,30.04,NNE,27,2.3,3.2,98,0.61,,,0.00,VWS V13.01,2013-09-22 12:46:00,
2013-09-22 07:51:00,49.7,49.1,30.04,NNE,27,2.4,2.4,98,0.61,,,0.00,VWS V13.01,2013-09-22 12:51:00,
2013-09-22 07:56:00,49.4,48.8,30.05,NE,39,1.6,2.5,98,0.61,,,0.00,VWS V13.01,2013-09-22 12:56:00,
2013-09-22 08:01:00,49.9,49.3,30.05,ENE,59,2.4,2.7,98,0.61,,,0.00,VWS V13.01,2013-09-22 13:01:00,
2013-09-22 08:06:00,50.4,49.7,30.05,NE,37,0.0,0.0,98,0.61,,,0.00,VWS V13.01,2013-09-22 13:06:00,
2013-09-22 08:11:00,50.8,50.1,30.05,NE,55,3.3,3.5,97,0.61,,,0.00,VWS V13.01,2013-09-22 13:11:00,
2013-09-22 08:16:00,51.2,50.4,30.05,NE,38,1.2,2.1,97,0.61,,,0.00,VWS V13.01,2013-09-22 13:16:00,
2013-09-22 08:21:00,51.7,50.6,30.05,NE,41,3.3,4.5,96,0.61,,,0.00,VWS V13.01,2013-09-22 13:21:00,
2013-09-22 08:26:00,52.0,50.8,30.05,ENE,60,2.3,2.7,96,0.61,,,0.00,VWS V13.01,2013-09-22 13:26:00,
2013-09-22 08:31:00,52.7,51.5,30.05,ENE,75,0.0,0.7,96,0.61,,,0.00,VWS V13.01,2013-09-22 13:31:00,
2013-09-22 08:36:00,52.7,51.4,30.05,NNE,22,0.0,1.3,95,0.61,,,0.00,VWS V13.01,2013-09-22 13:36:00,
2013-09-22 08:41:00,53.0,51.6,30.05,NNE,22,0.0,0.0,95,0.61,,,0.00,VWS V13.01,2013-09-22 13:41:00,
2013-09-22 08:46:00,53.5,51.7,30.05,NE,53,2.1,2.5,94,0.61,,,0.00,VWS V13.01,2013-09-22 13:46:00,
2013-09-22 08:51:00,53.7,51.2,30.06,NE,35,4.2,4.6,91,0.61,,,0.00,VWS V13.01,2013-09-22 13:51:00,
2013-09-22 08:56:00,54.0,51.7,30.06,NE,48,4.8,5.0,92,0.61,,,0.00,VWS V13.01,2013-09-22 13:56:00,
2013-09-22 09:01:00,54.7,52.9,30.06,ENE,72,0.5,3.3,94,0.61,,,0.00,VWS V13.01,2013-09-22 14:01:00,
2013-09-22 09:06:00,54.8,52.8,30.06,South,170,1.4,2.7,93,0.61,,,0.00,VWS V13.01,2013-09-22 14:06:00,
2013-09-22 09:11:00,55.2,52.5,30.06,ESE,118,0.8,1.0,91,0.61,,,0.00,VWS V13.01,2013-09-22 14:11:00,
2013-09-22 09:16:00,55.9,52.7,30.07,ENE,75,2.0,2.9,89,0.61,,,0.00,VWS V13.01,2013-09-22 14:16:00,
2013-09-22 09:21:00,56.4,51.5,30.07,NE,38,3.8,6.0,84,0.61,,,0.00,VWS V13.01,2013-09-22 14:21:00,
2013-09-22 09:26:00,56.8,51.4,30.07,ENE,63,1.9,3.2,82,0.61,,,0.00,VWS V13.01,2013-09-22 14:26:00,
2013-09-22 09:31:00,57.1,51.4,30.07,North,4,0.0,0.0,81,0.61,,,0.00,VWS V13.01,2013-09-22 14:31:00,
2013-09-22 09:36:00,57.5,51.1,30.07,East,82,2.5,2.5,79,0.61,,,0.00,VWS V13.01,2013-09-22 14:36:00,
2013-09-22 09:41:00,58.0,50.6,30.07,NNE,25,2.9,4.2,76,0.61,,,0.00,VWS V13.01,2013-09-22 14:41:00,
2013-09-22 09:46:00,58.3,50.0,30.07,NE,51,4.9,6.4,74,0.61,,,0.00,VWS V13.01,2013-09-22 14:46:00,
2013-09-22 09:51:00,58.7,50.2,30.07,NNW,340,1.0,2.3,73,0.61,,,0.00,VWS V13.01,2013-09-22 14:51:00,
2013-09-22 09:56:00,59.0,50.3,30.07,East,79,0.0,0.0,73,0.61,,,0.00,VWS V13.01,2013-09-22 14:56:00,
2013-09-22 10:01:00,59.4,49.8,30.07,NE,39,4.1,4.8,70,0.61,,,0.00,VWS V13.01,2013-09-22 15:01:00,
2013-09-22 10:06:00,59.6,48.4,30.07,NE,55,2.2,5.5,66,0.61,,,0.00,VWS V13.01,2013-09-22 15:06:00,
2013-09-22 10:11:00,60.0,47.8,30.07,ENE,70,0.0,1.6,64,0.61,,,0.00,VWS V13.01,2013-09-22 15:11:00,
2013-09-22 10:16:00,60.6,47.7,30.07,South,187,0.0,0.9,62,0.61,,,0.00,VWS V13.01,2013-09-22 15:16:00,
2013-09-22 10:21:00,60.7,46.9,30.08,NNE,17,2.1,5.5,60,0.61,,,0.00,VWS V13.01,2013-09-22 15:21:00,
2013-09-22 10:26:00,60.5,45.4,30.08,NE,44,3.2,3.2,57,0.61,,,0.00,VWS V13.01,2013-09-22 15:26:00,
2013-09-22 10:31:00,60.8,45.7,30.08,NNW,347,2.4,4.3,58,0.61,,,0.00,VWS V13.01,2013-09-22 15:31:00,
2013-09-22 10:36:00,61.3,46.3,30.08,NE,49,2.2,2.2,58,0.61,,,0.00,VWS V13.01,2013-09-22 15:36:00,
2013-09-22 10:41:00,61.6,45.0,30.07,NE,39,0.3,3.7,54,0.61,,,0.00,VWS V13.01,2013-09-22 15:41:00,
2013-09-22 10:46:00,61.8,45.0,30.07,ENE,69,3.4,3.7,54,0.61,,,0.00,VWS V13.01,2013-09-22 15:46:00,
2013-09-22 10:51:00,62.1,45.1,30.07,North,349,2.9,4.3,54,0.61,,,0.00,VWS V13.01,2013-09-22 15:51:00,
2013-09-22 10:56:00,62.2,44.7,30.07,SW,215,1.2,3.8,53,0.61,,,0.00,VWS V13.01,2013-09-22 15:56:00,
2013-09-22 11:01:00,62.5,44.5,30.07,NE,49,4.7,7.1,52,0.61,,,0.00,VWS V13.01,2013-09-22 16:01:00,
2013-09-22 11:06:00,62.8,43.3,30.07,NE,48,6.4,8.7,49,0.61,,,0.00,VWS V13.01,2013-09-22 16:06:00,
2013-09-22 11:11:00,62.5,43.6,30.07,WNW,285,0.0,0.0,50,0.61,,,0.00,VWS V13.01,2013-09-22 16:11:00,
2013-09-22 11:16:00,63.0,43.9,30.07,NNW,346,2.6,2.9,50,0.61,,,0.00,VWS V13.01,2013-09-22 16:16:00,
2013-09-22 11:21:00,63.6,44.2,30.06,NE,49,0.0,0.2,49,0.61,,,0.00,VWS V13.01,2013-09-22 16:21:00,
2013-09-22 11:26:00,63.5,43.3,30.06,ENE,59,1.8,2.5,48,0.61,,,0.00,VWS V13.01,2013-09-22 16:26:00,
2013-09-22 11:31:00,63.3,42.3,30.06,ESE,110,1.5,2.3,46,0.61,,,0.00,VWS V13.01,2013-09-22 16:31:00,
2013-09-22 11:36:00,63.1,41.8,30.06,NE,52,7.0,9.1,46,0.61,,,0.00,VWS V13.01,2013-09-22 16:36:00,
2013-09-22 11:41:00,63.3,42.5,30.06,WSW,253,0.0,0.0,47,0.61,,,0.00,VWS V13.01,2013-09-22 16:41:00,
2013-09-22 11:46:00,63.5,42.9,30.06,WSW,253,0.0,0.0,47,0.61,,,0.00,VWS V13.01,2013-09-22 16:46:00,
2013-09-22 11:51:00,63.8,41.5,30.06,NE,45,2.2,8.0,44,0.61,,,0.00,VWS V13.01,2013-09-22 16:51:00,
2013-09-22 11:56:00,64.1,42.3,30.06,NW,314,2.7,3.9,45,0.61,,,0.00,VWS V13.01,2013-09-22 16:56:00,
2013-09-22 12:01:00,64.5,42.0,30.06,NW,315,0.0,0.3,44,0.61,,,0.00,VWS V13.01,2013-09-22 17:01:00,
2013-09-22 12:06:00,64.3,41.7,30.05,West,270,0.0,0.0,44,0.61,,,0.00,VWS V13.01,2013-09-22 17:06:00,
2013-09-22 12:11:00,64.7,42.2,30.05,NW,307,3.5,3.5,44,0.61,,,0.00,VWS V13.01,2013-09-22 17:11:00,
2013-09-22 12:16:00,65.3,42.5,30.05,ENE,63,6.9,8.0,44,0.61,,,0.00,VWS V13.01,2013-09-22 17:16:00,
2013-09-22 12:21:00,65.2,41.0,30.05,NW,315,4.5,5.0,41,0.61,,,0.00,VWS V13.01,2013-09-22 17:21:00,
2013-09-22 12:26:00,65.7,41.8,30.05,ENE,62,3.9,5.9,42,0.61,,,0.00,VWS V13.01,2013-09-22 17:26:00,
2013-09-22 12:31:00,65.2,41.7,30.05,WSW,238,3.7,3.9,42,0.61,,,0.00,VWS V13.01,2013-09-22 17:31:00,
2013-09-22 12:36:00,65.8,41.6,30.04,North,4,3.2,3.2,41,0.61,,,0.00,VWS V13.01,2013-09-22 17:36:00,
2013-09-22 12:41:00,65.7,40.8,30.04,NNE,15,3.2,6.7,40,0.61,,,0.00,VWS V13.01,2013-09-22 17:41:00,
2013-09-22 12:46:00,65.8,40.6,30.04,East,89,2.1,3.0,40,0.61,,,0.00,VWS V13.01,2013-09-22 17:46:00,
2013-09-22 12:51:00,65.5,40.6,30.03,NW,323,0.4,3.5,40,0.61,,,0.00,VWS V13.01,2013-09-22 17:51:00,
2013-09-22 12:56:00,65.9,40.9,30.03,NNE,24,7.5,8.3,40,0.61,,,0.00,VWS V13.01,2013-09-22 17:56:00,
2013-09-22 13:01:00,66.2,39.4,30.03,NE,48,6.7,6.7,37,0.61,,,0.00,VWS V13.01,2013-09-22 18:01:00,
2013-09-22 13:06:00,66.1,38.5,30.03,East,93,1.0,4.1,36,0.61,,,0.00,VWS V13.01,2013-09-22 18:06:00,
2013-09-22 13:11:00,65.9,39.3,30.02,ENE,77,4.8,5.2,38,0.61,,,0.00,VWS V13.01,2013-09-22 18:11:00,
2013-09-22 13:16:00,66.4,40.0,30.02,NE,52,3.0,3.0,38,0.61,,,0.00,VWS V13.01,2013-09-22 18:16:00,
2013-09-22 13:21:00,66.8,40.5,30.02,ENE,69,2.0,6.7,38,0.61,,,0.00,VWS V13.01,2013-09-22 18:21:00,
2013-09-22 13:26:00,67.2,40.9,30.02,East,96,4.8,6.2,38,0.61,,,0.00,VWS V13.01,2013-09-22 18:26:00,
2013-09-22 13:31:00,67.3,40.2,30.02,NW,321,0.6,5.1,37,0.61,,,0.00,VWS V13.01,2013-09-22 18:31:00,
2013-09-22 13:36:00,67.6,40.6,30.02,SSE,152,1.3,2.9,37,0.61,,,0.00,VWS V13.01,2013-09-22 18:36:00,
2013-09-22 13:41:00,67.9,40.4,30.02,East,94,6.5,7.1,37,0.61,,,0.00,VWS V13.01,2013-09-22 18:41:00,
2013-09-22 13:46:00,68.0,39.9,30.02,NE,34,3.8,3.8,36,0.61,,,0.00,VWS V13.01,2013-09-22 18:46:00,
2013-09-22 13:51:00,67.8,39.8,30.02,NNE,24,2.4,2.6,36,0.61,,,0.00,VWS V13.01,2013-09-22 18:51:00,
2013-09-22 13:56:00,68.3,38.6,30.01,NNE,25,7.3,9.4,34,0.61,,,0.00,VWS V13.01,2013-09-22 18:56:00,
2013-09-22 14:01:00,68.5,38.8,30.01,North,11,4.8,4.8,34,0.61,,,0.00,VWS V13.01,2013-09-22 19:01:00,
2013-09-22 14:06:00,68.4,39.0,30.01,SSW,208,1.1,2.1,34,0.61,,,0.00,VWS V13.01,2013-09-22 19:06:00,
2013-09-22 14:11:00,68.8,38.7,30.01,SSE,155,4.5,5.7,33,0.61,,,0.00,VWS V13.01,2013-09-22 19:11:00,
2013-09-22 14:16:00,68.7,37.6,30.00,NE,56,5.2,5.2,32,0.61,,,0.00,VWS V13.01,2013-09-22 19:16:00,
2013-09-22 14:21:00,69.0,37.5,30.00,NE,46,7.0,8.8,32,0.61,,,0.00,VWS V13.01,2013-09-22 19:21:00,
2013-09-22 14:26:00,68.9,37.0,30.01,ENE,68,2.5,3.4,31,0.61,,,0.00,VWS V13.01,2013-09-22 19:26:00,
2013-09-22 14:31:00,68.6,36.5,30.00,NE,39,5.3,9.1,31,0.61,,,0.00,VWS V13.01,2013-09-22 19:31:00,
2013-09-22 14:36:00,68.5,37.8,30.01,ENE,75,0.7,3.2,32,0.61,,,0.00,VWS V13.01,2013-09-22 19:36:00,
2013-09-22 14:41:00,68.4,35.7,30.00,NNE,30,6.3,9.8,30,0.61,,,0.00,VWS V13.01,2013-09-22 19:41:00,
2013-09-22 14:46:00,68.5,37.1,30.00,NNE,24,1.9,4.8,32,0.61,,,0.00,VWS V13.01,2013-09-22 19:46:00,
2013-09-22 14:51:00,68.7,37.8,30.00,SSW,211,1.3,4.5,32,0.61,,,0.00,VWS V13.01,2013-09-22 19:51:00,
2013-09-22 14:56:00,69.0,38.1,30.00,NNW,342,2.1,2.1,32,0.61,,,0.00,VWS V13.01,2013-09-22 19:56:00,
2013-09-22 15:01:00,69.0,37.4,30.00,South,176,4.0,4.0,31,0.61,,,0.00,VWS V13.01,2013-09-22 20:01:00,
2013-09-22 15:06:00,69.7,36.3,30.00,NNW,330,3.3,7.5,29,0.61,,,0.00,VWS V13.01,2013-09-22 20:06:00,
2013-09-22 15:11:00,69.3,37.3,30.00,NE,46,5.7,6.3,31,0.61,,,0.00,VWS V13.01,2013-09-22 20:11:00,
2013-09-22 15:16:00,69.5,37.9,30.00,WNW,292,0.0,2.2,31,0.61,,,0.00,VWS V13.01,2013-09-22 20:16:00,
2013-09-22 15:21:00,69.8,38.8,30.00,SE,139,2.5,3.5,32,0.61,,,0.00,VWS V13.01,2013-09-22 20:21:00,
2013-09-22 15:26:00,70.0,38.4,30.00,NE,55,0.8,2.8,32,0.61,,,0.00,VWS V13.01,2013-09-22 20:26:00,
2013-09-22 15:31:00,69.5,37.8,30.00,North,356,3.6,4.2,31,0.61,,,0.00,VWS V13.01,2013-09-22 20:31:00,
2013-09-22 15:36:00,69.9,38.2,30.00,NE,35,2.8,3.4,31,0.61,,,0.00,VWS V13.01,2013-09-22 20:36:00,
2013-09-22 15:41:00,70.0,38.3,30.00,ENE,69,4.3,7.0,31,0.61,,,0.00,VWS V13.01,2013-09-22 20:41:00,
2013-09-22 15:46:00,69.6,38.5,29.99,West,267,0.0,0.5,32,0.61,,,0.00,VWS V13.01,2013-09-22 20:46:00,
2013-09-22 15:51:00,69.5,39.3,29.99,NE,46,4.5,5.7,33,0.61,,,0.00,VWS V13.01,2013-09-22 20:51:00,
2013-09-22 15:56:00,69.5,37.9,29.99,East,80,0.6,3.2,31,0.61,,,0.00,VWS V13.01,2013-09-22 20:56:00,
2013-09-22 16:01:00,69.8,38.0,29.99,NNE,31,2.3,6.0,31,0.61,,,0.00,VWS V13.01,2013-09-22 21:01:00,
2013-09-22 16:06:00,69.7,38.9,29.99,ENE,75,4.9,5.9,32,0.61,,,0.00,VWS V13.01,2013-09-22 21:06:00,
2013-09-22 16:11:00,70.1,39.0,29.98,NNW,345,0.7,2.6,32,0.61,,,0.00,VWS V13.01,2013-09-22 21:11:00,
2013-09-22 16:16:00,70.1,38.7,29.98,ENE,76,1.7,3.4,32,0.61,,,0.00,VWS V13.01,2013-09-22 21:16:00,
2013-09-22 16:21:00,70.1,38.4,29.98,NE,51,0.4,1.4,31,0.61,,,0.00,VWS V13.01,2013-09-22 21:21:00,
2013-09-22 16:26:00,70.1,38.7,29.98,ENE,58,6.5,7.3,32,0.61,,,0.00,VWS V13.01,2013-09-22 21:26:00,
2013-09-22 16:31:00,69.8,38.2,29.98,ENE,69,0.0,0.0,32,0.61,,,0.00,VWS V13.01,2013-09-22 21:31:00,
2013-09-22 16:36:00,70.1,39.1,29.98,ESE,108,0.9,2.1,32,0.61,,,0.00,VWS V13.01,2013-09-22 21:36:00,
2013-09-22 16:41:00,69.9,39.3,29.98,East,79,2.1,2.5,33,0.61,,,0.00,VWS V13.01,2013-09-22 21:41:00,
2013-09-22 16:46:00,70.2,39.3,29.98,NE,55,0.2,2.0,32,0.61,,,0.00,VWS V13.01,2013-09-22 21:46:00,
2013-09-22 16:51:00,70.0,38.7,29.98,ENE,66,1.9,3.4,32,0.61,,,0.00,VWS V13.01,2013-09-22 21:51:00,
2013-09-22 16:56:00,69.7,38.1,29.98,North,7,2.2,3.5,31,0.61,,,0.00,VWS V13.01,2013-09-22 21:56:00,
2013-09-22 17:01:00,69.6,39.1,29.98,East,93,1.7,3.9,33,0.61,,,0.00,VWS V13.01,2013-09-22 22:01:00,
2013-09-22 17:06:00,69.5,38.8,29.98,NE,46,3.9,4.0,33,0.61,,,0.00,VWS V13.01,2013-09-22 22:06:00,
2013-09-22 17:11:00,69.5,38.3,29.98,NE,48,2.5,3.4,32,0.61,,,0.00,VWS V13.01,2013-09-22 22:11:00,
2013-09-22 17:16:00,69.6,38.6,29.98,NE,38,0.0,0.0,32,0.61,,,0.00,VWS V13.01,2013-09-22 22:16:00,
2013-09-22 17:21:00,69.6,38.9,29.98,ESE,111,3.4,4.9,33,0.61,,,0.00,VWS V13.01,2013-09-22 22:21:00,
2013-09-22 17:26:00,69.5,38.9,29.97,ENE,60,2.6,2.6,33,0.61,,,0.00,VWS V13.01,2013-09-22 22:26:00,
2013-09-22 17:32:00,69.2,40.0,29.97,ENE,59,2.5,3.2,34,0.61,,,0.00,VWS V13.01,2013-09-22 22:32:00,
2013-09-22 17:37:00,69.2,39.8,29.98,North,8,0.0,1.6,34,0.61,,,0.00,VWS V13.01,2013-09-22 22:37:00,
2013-09-22 17:42:00,69.3,39.5,29.98,NE,42,4.8,5.8,34,0.61,,,0.00,VWS V13.01,2013-09-22 22:42:00,
2013-09-22 17:47:00,69.3,38.8,29.98,ENE,75,4.2,4.6,33,0.61,,,0.00,VWS V13.01,2013-09-22 22:47:00,
2013-09-22 17:52:00,69.1,39.3,29.98,North,10,0.0,0.0,34,0.61,,,0.00,VWS V13.01,2013-09-22 22:52:00,
2013-09-22 17:57:00,69.0,39.8,29.98,NE,48,0.6,2.0,34,0.61,,,0.00,VWS V13.01,2013-09-22 22:57:00,
2013-09-22 18:02:00,68.9,39.7,29.98,NE,51,2.1,2.7,34,0.61,,,0.00,VWS V13.01,2013-09-22 23:02:00,
2013-09-22 18:07:00,68.8,40.1,29.98,NE,44,4.3,4.3,35,0.61,,,0.00,VWS V13.01,2013-09-22 23:07:00,
2013-09-22 18:12:00,68.8,39.8,29.98,ENE,58,1.7,4.5,35,0.61,,,0.00,VWS V13.01,2013-09-22 23:12:00,
2013-09-22 18:17:00,68.6,39.9,29.98,NE,48,1.6,2.3,35,0.61,,,0.00,VWS V13.01,2013-09-22 23:17:00,
2013-09-22 18:22:00,68.5,40.1,29.98,NE,52,3.4,3.4,35,0.61,,,0.00,VWS V13.01,2013-09-22 23:22:00,
2013-09-22 18:27:00,68.4,40.1,29.98,NNE,17,0.0,0.0,36,0.61,,,0.00,VWS V13.01,2013-09-22 23:27:00,
2013-09-22 18:32:00,68.1,40.3,29.99,NNE,17,0.0,0.0,36,0.61,,,0.00,VWS V13.01,2013-09-22 23:32:00,
2013-09-22 18:37:00,68.3,40.8,29.99,NNE,17,0.0,0.0,37,0.61,,,0.00,VWS V13.01,2013-09-22 23:37:00,
2013-09-22 18:42:00,68.0,40.7,29.99,NE,48,1.7,1.9,37,0.61,,,0.00,VWS V13.01,2013-09-22 23:42:00,
2013-09-22 18:47:00,67.9,41.0,29.99,NE,49,1.1,1.1,38,0.61,,,0.00,VWS V13.01,2013-09-22 23:47:00,
2013-09-22 18:52:00,67.7,41.3,29.98,NE,44,1.4,1.6,38,0.61,,,0.00,VWS V13.01,2013-09-22 23:52:00,
2013-09-22 18:57:00,67.1,41.3,29.99,NE,41,1.3,1.8,39,0.61,,,0.00,VWS V13.01,2013-09-22 23:57:00,
2013-09-22 19:02:00,66.6,41.7,29.98,NE,52,2.9,3.0,40,0.61,,,0.00,VWS V13.01,2013-09-23 00:02:00,
2013-09-22 19:07:00,65.8,41.8,29.98,NE,53,2.1,2.1,42,0.61,,,0.00,VWS V13.01,2013-09-23 00:07:00,
2013-09-22 19:12:00,65.2,42.0,29.99,NE,41,1.5,1.9,43,0.61,,,0.00,VWS V13.01,2013-09-23 00:12:00,
2013-09-22 19:17:00,64.8,42.2,29.99,NE,37,1.7,2.2,44,0.61,,,0.00,VWS V13.01,2013-09-23 00:17:00,
2013-09-22 19:22:00,64.6,42.6,29.98,NNE,24,2.5,2.9,45,0.61,,,0.00,VWS V13.01,2013-09-23 00:22:00,
2013-09-22 19:27:00,63.9,42.6,29.98,NNE,22,3.3,3.9,46,0.61,,,0.00,VWS V13.01,2013-09-23 00:27:00,
2013-09-22 19:32:00,63.8,43.2,29.99,NE,37,3.1,3.3,47,0.61,,,0.00,VWS V13.01,2013-09-23 00:32:00,
2013-09-22 19:37:00,63.5,43.4,29.99,NE,42,3.0,3.9,48,0.61,,,0.00,VWS V13.01,2013-09-23 00:37:00,
2013-09-22 19:42:00,63.1,43.3,29.99,NE,38,3.1,3.1,48,0.61,,,0.00,VWS V13.01,2013-09-23 00:42:00,
2013-09-22 19:47:00,62.9,43.5,29.99,NNE,18,3.4,3.5,49,0.61,,,0.00,VWS V13.01,2013-09-23 00:47:00,
2013-09-22 19:52:00,62.5,43.4,29.99,NNE,30,3.2,4.4,50,0.61,,,0.00,VWS V13.01,2013-09-23 00:52:00,
2013-09-22 19:57:00,62.3,43.6,30.00,NE,42,2.2,3.8,50,0.61,,,0.00,VWS V13.01,2013-09-23 00:57:00,
2013-09-22 20:02:00,62.2,44.1,30.00,NE,38,3.2,3.5,51,0.61,,,0.00,VWS V13.01,2013-09-23 01:02:00,
2013-09-22 20:07:00,61.4,44.0,30.00,NE,48,4.9,4.9,53,0.61,,,0.00,VWS V13.01,2013-09-23 01:07:00,
2013-09-22 20:12:00,61.1,44.5,30.00,NE,35,3.6,4.0,54,0.61,,,0.00,VWS V13.01,2013-09-23 01:12:00,
2013-09-22 20:17:00,61.0,44.8,30.00,NE,44,3.1,3.3,55,0.61,,,0.00,VWS V13.01,2013-09-23 01:17:00,
2013-09-22 20:22:00,60.5,44.8,30.00,NNE,30,3.7,4.0,56,0.61,,,0.00,VWS V13.01,2013-09-23 01:22:00,
2013-09-22 20:27:00,60.5,45.1,30.00,NE,44,3.5,3.7,57,0.61,,,0.00,VWS V13.01,2013-09-23 01:27:00,
2013-09-22 20:32:00,60.1,44.9,30.00,NNE,27,3.6,4.6,57,0.61,,,0.00,VWS V13.01,2013-09-23 01:32:00,
2013-09-22 20:37:00,59.9,45.0,30.00,NNE,28,3.4,4.0,58,0.61,,,0.00,VWS V13.01,2013-09-23 01:37:00,
2013-09-22 20:42:00,59.6,45.1,30.00,NNE,25,3.5,3.9,59,0.61,,,0.00,VWS V13.01,2013-09-23 01:42:00,
2013-09-22 20:47:00,59.2,45.2,30.00,NE,48,3.8,3.8,60,0.61,,,0.00,VWS V13.01,2013-09-23 01:47:00,
2013-09-22 20:52:00,59.2,45.8,30.00,NE,42,3.3,4.8,61,0.61,,,0.00,VWS V13.01,2013-09-23 01:52:00,
2013-09-22 20:57:00,58.7,45.7,30.00,NE,49,3.2,3.5,62,0.61,,,0.00,VWS V13.01,2013-09-23 01:57:00,
2013-09-22 21:02:00,58.6,45.9,30.00,NNE,32,3.5,3.7,63,0.61,,,0.00,VWS V13.01,2013-09-23 02:02:00,
2013-09-22 21:07:00,58.2,45.9,30.00,NE,37,3.4,4.1,64,0.61,,,0.00,VWS V13.01,2013-09-23 02:07:00,
2013-09-22 21:12:00,58.0,46.2,30.00,NNE,25,3.5,4.2,65,0.61,,,0.00,VWS V13.01,2013-09-23 02:12:00,
2013-09-22 21:17:00,57.7,46.3,30.00,NE,42,3.6,4.4,66,0.61,,,0.00,VWS V13.01,2013-09-23 02:17:00,
2013-09-22 21:22:00,57.8,46.5,30.01,NNE,28,2.9,3.4,66,0.61,,,0.00,VWS V13.01,2013-09-23 02:22:00,
2013-09-22 21:28:00,57.8,46.7,30.01,NE,42,3.3,4.5,66,0.61,,,0.00,VWS V13.01,2013-09-23 02:28:00,
2013-09-22 21:33:00,57.7,47.0,30.01,NE,37,4.0,4.2,67,0.61,,,0.00,VWS V13.01,2013-09-23 02:33:00,
2013-09-22 21:38:00,57.4,46.8,30.01,NE,39,3.2,4.2,68,0.61,,,0.00,VWS V13.01,2013-09-23 02:38:00,
2013-09-22 21:43:00,57.3,47.2,30.01,NE,37,4.5,4.7,69,0.61,,,0.00,VWS V13.01,2013-09-23 02:43:00,
2013-09-22 21:48:00,57.0,47.4,30.01,NE,51,5.1,5.4,70,0.61,,,0.00,VWS V13.01,2013-09-23 02:48:00,
2013-09-22 21:53:00,56.6,47.7,30.01,NE,53,4.3,4.8,72,0.61,,,0.00,VWS V13.01,2013-09-23 02:53:00,
2013-09-22 21:58:00,56.2,47.6,30.01,NE,44,2.0,2.8,73,0.61,,,0.00,VWS V13.01,2013-09-23 02:58:00,
2013-09-22 22:03:00,56.2,47.5,30.02,NE,42,2.9,3.4,73,0.61,,,0.00,VWS V13.01,2013-09-23 03:03:00,
2013-09-22 22:08:00,56.2,47.9,30.02,NE,42,3.8,4.2,74,0.61,,,0.00,VWS V13.01,2013-09-23 03:08:00,
2013-09-22 22:13:00,56.2,48.0,30.02,NE,45,4.0,4.0,74,0.61,,,0.00,VWS V13.01,2013-09-23 03:13:00,
2013-09-22 22:18:00,56.0,47.8,30.02,NE,46,4.5,5.2,74,0.61,,,0.00,VWS V13.01,2013-09-23 03:18:00,
2013-09-22 22:23:00,55.6,48.0,30.02,NNE,28,5.5,5.5,76,0.61,,,0.00,VWS V13.01,2013-09-23 03:23:00,
2013-09-22 22:28:00,55.5,48.6,30.02,NE,52,6.3,8.7,78,0.61,,,0.00,VWS V13.01,2013-09-23 03:28:00,
2013-09-22 22:33:00,55.6,49.0,30.02,NE,53,6.6,8.8,78,0.61,,,0.00,VWS V13.01,2013-09-23 03:33:00,
2013-09-22 22:38:00,55.6,49.1,30.02,NE,45,7.1,8.0,79,0.61,,,0.00,VWS V13.01,2013-09-23 03:38:00,
2013-09-22 22:43:00,55.4,49.1,30.02,ENE,66,6.8,9.1,79,0.61,,,0.00,VWS V13.01,2013-09-23 03:43:00,
2013-09-22 22:48:00,55.2,49.5,30.03,ENE,70,7.2,8.5,81,0.61,,,0.00,VWS V13.01,2013-09-23 03:48:00,
2013-09-22 22:53:00,54.6,49.5,30.03,NE,48,7.3,8.7,83,0.61,,,0.00,VWS V13.01,2013-09-23 03:53:00,
2013-09-22 22:58:00,54.6,50.2,30.03,NE,39,5.7,8.8,85,0.61,,,0.00,VWS V13.01,2013-09-23 03:58:00,
2013-09-22 23:01:00,54.5,50.2,30.03,ENE,58,6.2,8.3,86,0.61,,,0.00,VWS V13.01,2013-09-23 04:01:00,
2013-09-22 23:06:00,54.0,50.1,30.03,ENE,70,5.4,7.1,87,0.61,,,0.00,VWS V13.01,2013-09-23 04:06:00,
2013-09-22 23:11:00,54.2,50.4,30.03,NE,44,5.6,6.3,87,0.61,,,0.00,VWS V13.01,2013-09-23 04:11:00,
2013-09-22 23:16:00,54.1,50.5,30.03,ENE,60,5.5,6.2,87,0.61,,,0.00,VWS V13.01,2013-09-23 04:16:00,
2013-09-22 23:21:00,54.0,50.4,30.03,NE,35,6.1,7.6,88,0.61,,,0.00,VWS V13.01,2013-09-23 04:21:00,
2013-09-22 23:26:00,53.9,50.4,30.03,NE,38,6.5,7.0,88,0.61,,,0.00,VWS V13.01,2013-09-23 04:26:00,
2013-09-22 23:31:00,53.8,50.5,30.03,NE,44,5.5,7.0,88,0.61,,,0.00,VWS V13.01,2013-09-23 04:31:00,
2013-09-22 23:36:00,54.2,50.8,30.03,NE,52,6.3,6.5,88,0.61,,,0.00,VWS V13.01,2013-09-23 04:36:00,
2013-09-22 23:41:00,53.7,50.5,30.03,ENE,65,4.7,5.2,89,0.61,,,0.00,VWS V13.01,2013-09-23 04:41:00,
2013-09-22 23:46:00,53.5,50.4,30.03,NE,45,4.3,5.5,89,0.61,,,0.00,VWS V13.01,2013-09-23 04:46:00,
2013-09-22 23:51:00,53.4,50.3,30.03,NE,53,5.3,6.6,89,0.61,,,0.00,VWS V13.01,2013-09-23 04:51:00,
2013-09-22 23:56:00,53.4,50.5,30.03,NE,37,4.3,5.0,90,0.61,,,0.00,VWS V13.01,2013-09-23 04:56:00,